Theta_e
346 347 348 348 348 347 347 347 347 347 347 347 348 348 349 350 350 350 350 350 350 350 349 350 350 350 350 349 349 349 349 349 349 349 349 347 346 345 344 342 340 339 339 338 336 335 335 336 336 337 337 337 336 335 335 335 335 336 337 337 338 341 343
345 347 347 348 348 348 348 347 347 348 347 347 348 348 349 349 349 350 350 350 350 350 350 350 350 350 350 349 349 349 349 349 350 349 349 348 347 346 345 343 341 340 340 339 337 337 336 336 336 336 337 337 336 336 336 335 334 335 336 337 337 339 341
344 345 346 347 348 348 348 348 347 348 347 347 348 348 349 349 349 349 349 349 350 350 350 350 349 350 349 349 349 349 349 350 350 350 349 347 346 345 345 344 342 341 340 340 339 338 337 336 336 336 337 337 337 337 337 336 335 335 336 337 336 337 339
343 345 346 346 347 348 348 348 348 348 348 348 348 348 348 349 349 349 349 349 350 349 350 350 349 350 350 350 349 349 349 350 349 349 348 347 346 345 345 344 343 342 341 340 340 339 338 337 337 337 336 336 337 337 337 336 335 336 337 337 337 336 337
343 344 345 345 347 347 348 348 348 348 348 348 348 348 348 349 349 349 349 349 349 349 349 349 350 350 350 350 350 349 349 349 350 349 348 347 347 346 346 345 344 343 341 340 340 340 339 339 337 337 336 335 336 335 335 335 335 335 336 337 337 336 336
342 343 344 345 345 347 347 348 348 348 348 348 348 348 348 349 349 349 350 349 350 349 349 349 350 350 350 350 350 349 349 349 350 350 349 348 347 347 346 345 345 344 342 341 340 340 340 339 338 337 336 335 335 334 334 334 334 334 335 336 337 336 336
342 342 344 344 345 346 346 348 348 348 349 349 348 348 349 349 349 349 349 350 350 350 350 350 350 350 350 350 350 350 350 350 350 350 349 348 348 347 346 346 346 345 344 343 341 340 340 340 339 338 337 336 335 334 333 333 334 334 335 335 336 336 337
342 343 343 344 344 345 346 347 348 348 349 349 349 349 349 349 349 349 350 350 350 350 350 350 350 350 350 350 350 350 350 350 350 349 349 348 348 347 346 346 346 345 345 344 342 340 340 339 339 338 337 336 335 334 333 332 333 334 335 335 335 336 337
342 343 343 344 344 344 346 346 347 348 349 349 349 349 349 349 349 349 349 349 350 350 350 349 350 349 350 350 350 350 350 350 350 350 349 349 348 347 346 345 345 345 345 343 341 340 339 338 337 337 337 336 335 334 333 331 332 333 334 334 334 334 335
341 342 342 344 344 344 345 346 347 348 349 349 349 349 349 349 349 349 349 350 349 350 350 349 350 350 350 350 349 349 350 350 350 350 349 348 348 347 345 344 344 344 343 341 340 339 338 337 337 336 336 335 334 333 332 330 331 332 333 333 333 333 332
339 341 342 343 343 344 345 346 348 348 349 350 349 349 349 349 350 349 349 350 350 350 350 349 350 350 350 350 350 350 350 350 350 350 349 348 348 347 346 345 345 343 342 341 340 339 337 337 336 336 334 332 331 331 330 329 329 330 332 332 333 332 332
337 339 341 342 342 344 345 346 348 348 349 350 349 350 349 349 349 349 349 350 350 350 350 350 350 350 350 350 350 350 350 350 350 349 349 349 348 348 347 346 345 343 342 341 340 339 337 336 336 335 333 331 329 329 329 329 329 330 330 331 332 333 333
336 338 339 341 342 343 345 346 347 348 349 350 349 350 349 349 349 350 350 350 350 350 350 350 350 350 350 350 350 350 350 350 350 349 349 348 348 348 347 346 345 344 342 341 340 339 338 337 336 334 332 330 329 329 328 328 329 329 330 330 331 332 332
334 337 338 340 342 343 345 346 347 349 349 349 350 350 349 350 350 350 350 349 350 350 350 350 350 350 350 350 350 350 350 350 350 349 349 349 348 348 348 347 346 345 343 342 341 339 338 337 336 334 332 331 330 329 329 329 329 329 329 329 330 331 331
331 336 338 339 341 343 344 346 347 348 349 349 350 350 350 350 350 350 350 350 350 350 350 350 350 350 350 350 350 350 350 349 349 349 349 349 349 349 348 348 347 346 345 344 342 340 338 338 337 336 335 333 332 331 330 330 329 329 329 329 329 330 330
329 336 339 339 341 343 344 346 347 348 349 350 349 350 350 350 350 350 350 350 350 350 350 350 350 350 350 350 350 350 349 349 349 349 349 349 349 349 349 349 348 347 346 345 343 342 340 339 338 337 336 334 333 333 332 331 330 329 328 328 328 329 329
331 337 339 340 341 342 343 346 347 348 349 350 349 350 350 350 351 351 350 350 350 350 350 350 350 350 350 350 350 350 349 350 350 349 349 349 350 350 350 350 349 349 348 346 345 343 342 341 339 337 336 335 335 334 334 332 330 329 329 329 328 329 329
336 338 340 341 341 343 344 345 347 348 349 350 350 349 350 351 351 351 351 351 351 351 351 351 351 351 351 350 350 350 350 350 350 350 350 350 350 350 351 351 351 350 350 348 346 345 344 342 340 337 336 336 335 335 334 332 331 330 330 329 329 329 329
339 339 340 342 342 343 345 346 347 348 348 349 350 349 350 351 350 351 351 351 351 351 351 351 351 351 351 351 350 351 350 350 350 350 350 350 350 351 351 351 352 352 351 350 348 346 345 343 341 338 338 337 336 335 334 333 332 331 331 331 330 330 330
340 342 341 343 344 343 345 346 347 348 349 349 349 349 350 350 350 351 351 351 351 351 351 352 352 351 351 351 351 351 351 351 351 351 351 351 351 351 352 352 352 353 352 352 351 350 348 345 342 340 338 338 337 336 335 335 333 333 333 332 332 332 332
339 343 343 344 346 345 346 348 348 348 349 349 349 350 350 350 351 351 351 351 352 352 352 352 352 352 352 351 352 352 351 352 352 351 351 351 351 352 353 353 353 354 354 354 354 353 351 348 346 344 341 339 338 337 337 336 335 335 335 334 334 335 335
339 341 344 344 345 346 346 347 348 349 349 349 350 350 350 351 351 351 351 352 352 352 352 352 352 352 351 352 352 352 352 352 352 352 352 353 353 353 353 354 354 355 355 356 356 356 355 354 352 349 346 344 343 341 338 336 335 336 336 335 336 337 337
343 340 343 344 345 347 348 348 349 349 350 350 350 350 350 351 351 351 352 352 352 352 352 352 352 352 352 352 352 352 353 352 352 353 353 353 354 354 354 355 355 356 357 357 357 357 357 356 356 354 351 349 348 345 340 336 335 336 336 336 338 338 339
349 344 343 344 345 346 347 349 349 350 350 350 350 351 351 351 351 351 352 352 352 352 352 352 352 351 352 352 351 352 352 352 353 353 353 354 354 355 356 356 357 358 358 358 358 358 358 358 358 357 356 355 353 350 347 343 340 340 340 340 340 341 340
353 349 345 344 345 346 347 348 349 350 350 350 351 351 351 351 351 351 351 352 352 352 353 352 351 351 351 351 351 352 352 352 353 353 354 354 355 356 357 358 358 359 359 359 359 359 360 360 360 360 360 359 358 356 355 353 350 348 348 347 346 346 345
354 353 351 347 346 346 346 347 348 349 349 349 350 351 351 351 351 351 351 351 352 352 352 352 350 350 350 350 351 352 352 353 354 354 355 355 356 357 358 358 359 359 359 360 360 360 361 360 360 361 361 361 361 360 359 358 357 355 354 353 352 351 350
353 355 354 352 351 348 347 347 347 348 348 348 349 349 350 350 350 351 352 352 352 352 352 351 351 350 350 351 352 353 353 354 355 355 356 357 356 357 358 358 359 360 360 361 361 361 361 361 361 362 362 362 362 361 361 360 359 358 357 356 355 355 353
352 354 355 356 355 353 351 350 349 348 348 348 348 348 348 349 349 350 351 351 352 352 352 351 352 352 352 352 353 354 355 356 356 357 357 358 358 358 359 359 360 360 361 361 361 361 362 362 362 362 362 362 362 362 362 361 360 360 359 358 357 357 356
350 351 353 356 357 357 356 355 354 354 352 351 350 349 349 349 350 350 351 351 352 352 352 352 353 353 354 355 355 356 356 356 357 358 358 358 359 359 359 359 360 360 361 361 362 362 362 362 362 363 362 362 362 362 362 361 361 361 360 359 359 358 358
349 349 350 352 354 356 358 358 358 359 359 358 356 354 353 352 352 353 353 353 354 355 355 355 356 356 356 357 357 357 358 358 359 359 359 360 360 360 360 361 361 361 361 362 362 362 363 363 363 363 363 363 362 362 361 361 361 361 360 360 360 359 359
348 348 348 349 350 352 354 357 358 358 360 361 361 360 358 356 356 357 358 358 359 359 359 359 359 359 359 359 359 359 359 360 360 360 360 360 360 360 361 361 361 362 361 362 362 362 362 363 363 363 363 363 362 362 361 361 361 361 361 360 360 359 359
347 348 348 349 349 349 350 352 354 355 357 358 360 360 360 359 359 360 360 360 360 360 360 360 359 359 359 359 359 358 358 358 358 357 358 359 360 360 360 360 361 361 361 361 362 362 362 362 362 363 363 363 363 363 362 361 361 361 361 361 361 360 361
347 348 348 349 349 350 350 350 351 352 353 354 355 356 356 356 356 357 357 357 357 356 357 357 356 356 355 354 354 354 354 354 354 355 355 356 358 359 359 359 360 360 360 361 361 361 361 361 362 362 362 363 363 362 362 362 362 362 362 361 362 362 362
344 347 348 348 349 350 351 351 352 352 352 352 352 352 351 350 349 349 349 348 348 348 350 351 351 351 350 349 349 349 349 350 351 352 353 355 357 358 358 359 359 360 360 360 360 360 361 361 361 362 362 362 363 362 362 362 362 362 362 363 363 363 364
338 345 348 348 348 348 349 350 351 351 351 351 351 350 350 349 347 347 346 343 342 342 341 342 344 346 347 347 347 346 346 347 349 351 353 355 356 358 358 358 359 359 360 359 360 361 361 361 362 362 363 363 363 363 363 363 364 364 364 364 364 365 365
328 339 346 347 347 348 348 347 348 349 348 349 349 348 349 349 348 348 347 346 346 346 343 342 342 345 348 349 348 348 349 349 350 353 354 356 357 358 358 358 358 359 360 360 361 361 362 362 363 363 364 364 364 365 365 364 364 365 365 365 365 365 365
319 330 340 345 346 347 348 347 347 348 348 347 347 347 347 348 348 347 347 347 348 348 348 348 347 348 353 355 354 355 356 356 355 355 357 358 359 359 359 359 359 359 360 361 361 362 363 364 364 364 364 364 364 365 365 365 365 365 365 366 366 365 366
314 321 333 343 345 345 347 347 347 347 347 347 347 347 347 346 346 346 346 345 344 344 346 350 351 353 357 360 361 360 360 361 360 359 359 360 360 360 360 361 360 360 361 362 362 363 364 364 365 364 364 364 364 365 366 366 367 367 367 367 366 367 366
Wind_Speed
41 42 44 44 45 45 48 50 50 50 51 51 52 52 52 52 52 52 52 51 50 49 48 46 45 43 41 39 37 35 35 35 35 35 35 36 35 34 33 32 31 30 28 26 24 22 20 19 19 18 18 17 16 16 17 17 17 17 16 16 16 16 16
37 40 43 43 43 46 48 49 49 49 50 51 52 52 52 53 53 53 53 52 51 50 49 47 46 45 43 40 38 36 35 34 35 35 36 36 36 34 34 33 32 31 29 27 25 23 21 20 20 20 19 19 18 17 17 18 18 18 18 17 17 17 17
37 40 42 43 45 47 48 48 48 50 51 51 52 53 54 55 55 55 54 52 51 50 49 48 47 45 43 42 40 38 37 35 35 35 36 36 36 34 33 32 32 32 30 28 26 25 23 22 21 21 21 20 20 18 18 19 19 19 19 18 18 18 18
38 42 45 46 48 49 48 48 49 50 52 53 54 55 55 55 54 54 53 52 51 51 50 49 48 46 44 43 42 40 39 37 36 35 36 36 36 34 33 32 32 32 31 29 28 26 25 24 23 22 22 21 20 20 19 20 20 20 20 19 19 19 19
37 42 44 45 47 47 46 47 49 50 52 53 53 54 54 54 53 53 53 52 51 50 49 48 48 47 46 44 43 41 40 38 37 36 36 36 37 36 34 33 31 31 31 30 29 28 27 26 24 23 23 22 21 20 20 21 22 21 21 21 21 20 20
35 38 41 44 46 46 46 48 50 51 52 52 52 52 52 52 52 52 52 52 52 50 48 48 48 47 46 45 44 43 41 40 38 37 36 36 37 37 36 34 32 31 31 30 30 30 29 28 26 25 24 22 22 20 20 21 21 22 22 22 22 21 21
35 38 42 46 47 47 48 49 51 52 51 50 49 48 49 50 52 52 52 51 52 51 49 49 48 47 47 46 44 44 42 41 39 37 36 36 36 37 36 35 34 33 32 31 30 30 30 30 28 27 26 24 23 22 20 20 20 21 22 22 22 21 21
36 39 44 47 49 50 50 51 51 51 49 47 46 47 49 51 52 52 52 52 51 51 50 49 48 48 47 45 44 43 42 41 39 38 36 36 36 36 36 36 35 34 33 33 32 31 31 31 30 29 28 27 26 24 22 21 20 21 21 22 22 21 21
37 39 44 47 49 50 51 52 51 49 48 47 48 50 50 51 51 52 52 52 51 51 51 49 48 47 46 45 44 42 41 41 39 38 36 36 35 35 35 35 34 34 34 34 33 31 31 30 30 30 29 29 28 27 25 23 22 22 22 22 22 22 21
36 39 43 45 46 47 49 49 46 45 46 48 49 50 50 50 51 52 52 52 52 52 51 50 48 47 46 46 44 43 42 41 40 38 37 36 35 34 33 33 33 33 34 34 33 32 31 30 30 30 30 29 29 28 27 26 25 24 24 23 24 23 23
37 39 42 43 44 45 44 42 41 43 46 48 50 50 50 51 51 51 52 52 52 52 51 50 48 48 47 46 45 45 44 42 41 40 38 36 35 33 31 31 32 32 33 33 33 32 32 31 31 30 30 29 29 29 28 27 26 25 25 24 24 24 23
37 39 41 43 43 43 42 42 43 45 47 48 50 51 50 51 51 51 51 52 52 51 51 50 49 48 48 47 47 46 45 44 42 40 38 37 35 33 32 31 31 32 32 32 32 32 32 32 32 31 30 29 28 28 28 27 27 27 26 25 25 24 24
36 40 43 44 43 42 42 43 45 47 48 49 51 51 51 51 51 51 51 51 51 51 50 49 49 48 48 48 47 47 46 44 43 41 39 37 34 32 31 31 31 31 31 31 32 32 32 32 32 32 31 30 29 28 28 28 28 28 27 27 26 26 26
35 40 43 42 41 41 42 44 46 47 48 50 50 50 50 50 50 50 50 50 50 49 49 48 48 48 48 48 48 47 46 44 42 41 38 36 34 32 31 30 30 30 30 31 32 32 32 32 32 32 31 31 30 30 29 30 30 29 29 28 28 27 27
34 38 40 39 39 41 44 46 47 48 49 50 50 50 49 48 48 48 48 49 48 48 48 48 47 47 47 48 48 47 45 44 42 41 39 36 34 32 31 30 29 29 30 31 32 32 32 32 32 32 32 33 32 32 32 32 31 31 30 29 29 28 28
34 36 38 39 40 43 46 47 48 49 49 49 50 49 49 48 48 48 48 48 48 47 47 47 46 46 47 47 47 45 44 44 43 41 39 37 35 33 32 30 29 29 30 30 31 32 32 32 32 33 33 33 33 33 34 33 32 31 31 30 29 29 28
31 35 37 39 42 44 46 46 47 47 47 49 50 50 50 49 49 49 48 47 47 47 46 46 45 45 46 46 45 44 44 43 43 41 40 38 36 34 33 32 30 30 29 30 31 31 32 32 33 33 34 34 34 34 35 34 32 31 31 30 30 29 29
29 34 38 40 43 44 45 44 45 46 47 49 50 50 50 49 48 47 47 47 47 46 45 44 44 44 44 44 44 43 43 43 43 42 40 38 36 35 33 33 32 31 30 30 30 31 32 33 33 33 34 34 34 35 35 34 32 31 31 31 30 30 30
27 33 39 42 43 44 44 44 45 48 49 49 50 51 50 50 49 48 48 47 45 44 43 43 43 43 43 43 43 43 43 42 42 41 40 38 36 34 33 34 34 33 32 30 30 30 32 33 33 33 34 34 35 35 35 34 33 32 32 31 30 30 30
23 28 33 37 41 43 44 44 45 47 47 48 49 49 49 48 47 47 45 44 43 42 42 42 42 42 42 42 42 42 41 41 41 40 39 37 35 34 34 34 34 33 32 31 30 31 32 32 33 33 34 34 34 35 35 34 33 32 32 31 31 31 31
19 24 28 31 36 40 41 42 43 44 45 46 46 45 45 45 44 43 42 41 41 41 41 41 40 41 40 40 41 41 41 41 40 39 38 37 36 35 35 35 34 33 32 32 32 32 31 31 32 32 32 33 33 34 35 34 33 32 32 32 31 31 32
13 20 25 29 33 37 39 42 43 43 43 44 44 43 43 43 43 42 41 40 40 39 39 40 39 39 39 39 40 40 40 39 39 38 37 36 36 36 36 35 34 33 32 32 32 32 31 31 32 31 31 31 32 33 34 34 32 32 32 31 31 31 32
8 16 20 25 29 32 35 37 39 40 41 41 42 41 41 42 41 40 39 38 39 38 38 38 38 38 38 38 37 37 37 36 36 35 35 35 36 36 35 33 32 31 31 32 32 31 31 31 31 30 30 31 31 32 32 32 30 30 30 29 29 30 31
9 14 17 21 24 27 29 31 33 35 36 37 38 38 38 39 39 38 37 37 37 37 37 37 36 36 36 35 34 34 33 33 32 32 32 33 33 32 31 30 30 29 29 30 30 29 29 28 28 28 28 28 29 29 30 29 27 27 27 27 27 28 29
15 15 19 20 22 23 25 27 29 30 32 33 34 35 35 36 36 35 35 35 35 36 36 36 34 33 32 31 30 30 31 30 30 30 30 30 30 28 28 27 27 27 28 29 29 27 27 27 27 27 26 26 26 26 27 26 23 22 23 23 23 24 25
21 18 19 21 23 23 23 25 27 28 29 31 31 32 32 32 33 33 33 33 33 34 34 33 31 28 27 27 28 29 30 30 30 30 30 29 28 27 26 26 26 27 29 29 28 27 28 28 29 28 26 25 25 24 25 24 20 18 19 19 19 20 21
25 22 22 22 24 25 25 26 26 27 27 27 27 28 28 28 29 30 31 31 31 32 31 29 27 26 25 26 27 29 30 30 30 29 29 28 27 27 27 27 28 28 29 28 28 28 28 29 29 28 27 26 25 25 24 24 21 18 18 18 18 18 19
27 26 25 24 25 26 27 28 27 26 26 25 25 26 26 26 27 28 28 29 29 28 27 25 25 25 25 25 27 29 30 30 30 29 29 28 29 29 29 29 29 29 29 30 30 30 29 29 29 29 28 27 26 26 24 24 22 20 19 18 18 18 18
27 27 26 26 26 26 27 28 27 26 24 23 24 25 25 26 27 27 27 28 27 27 26 25 26 26 26 27 28 28 29 30 29 29 29 29 30 30 29 29 29 30 31 31 32 32 31 31 30 31 30 28 27 26 24 23 22 21 20 19 18 18 18
25 26 25 24 24 25 27 29 29 27 25 23 23 24 26 27 28 28 28 28 26 26 25 25 25 26 26 27 28 28 29 29 28 29 29 29 30 30 30 30 31 31 31 32 33 33 33 32 32 32 32 30 28 25 23 22 21 20 20 19 18 18 17
24 23 24 22 20 20 23 26 28 28 28 27 26 26 27 28 29 29 28 27 25 23 23 22 22 22 23 23 24 24 24 25 25 26 26 27 29 30 30 30 30 31 31 31 32 33 33 32 32 32 32 30 29 26 23 21 20 20 20 19 18 17 16
23 22 23 23 21 18 18 20 23 25 27 27 26 26 27 27 27 27 27 26 25 23 22 22 22 22 22 22 21 21 21 21 21 21 22 24 27 29 28 28 29 29 29 30 31 31 31 30 31 32 32 31 29 26 23 21 20 19 18 18 17 16 14
24 22 22 23 23 21 19 19 21 22 23 23 22 22 23 24 25 25 24 24 24 23 23 22 22 23 23 22 22 22 22 22 22 21 21 22 25 27 28 28 29 29 29 29 29 28 27 27 27 28 29 29 27 25 23 21 20 19 17 16 14 13 13
23 21 20 21 22 22 22 22 22 22 22 21 20 19 19 19 19 18 18 18 19 19 19 19 20 20 20 21 21 21 22 22 23 23 22 23 24 26 27 28 29 30 29 27 26 25 24 23 22 22 22 21 21 20 20 20 19 17 15 12 12 12 12
22 20 19 19 19 20 20 21 20 21 21 21 20 20 20 20 18 16 13 12 11 11 12 13 14 15 15 16 16 17 18 20 21 22 23 24 24 25 26 27 28 29 27 25 24 23 21 20 18 16 15 15 15 15 15 15 13 12 11 10 11 12 13
21 18 16 16 17 17 17 18 17 17 18 19 19 19 19 20 19 18 16 13 11 8 7 8 9 11 11 11 12 13 15 17 18 19 20 21 21 22 23 24 25 25 25 23 22 20 19 17 14 12 10 11 12 11 11 11 10 10 11 12 13 13 14
21 18 15 14 13 14 15 15 14 14 15 15 16 16 17 17 17 16 15 14 12 10 7 7 8 9 10 9 10 11 12 13 15 16 16 16 16 16 17 19 21 21 21 20 19 18 16 14 12 10 9 10 10 10 11 12 13 14 14 14 14 14 14
21 17 14 11 10 11 12 13 12 12 12 12 13 14 14 14 15 14 13 12 11 10 9 8 8 9 10 9 9 9 8 9 10 11 11 11 11 11 12 13 15 17 18 18 17 15 14 13 12 11 11 11 11 12 12 12 13 15 16 17 16 14 13
Wind_Direction
206 208 209 210 210 209 210 211 212 211 211 212 212 212 212 212 213 214 216 218 220 222 222 223 224 225 226 226 226 227 228 231 232 233 235 236 235 235 234 235 235 237 238 237 237 237 237 237 236 236 236 236 238 240 243 244 245 247 247 248 250 253 255
204 208 209 210 209 210 212 212 212 211 211 212 212 212 212 213 213 214 216 218 220 222 222 223 224 225 226 227 226 227 228 230 232 234 236 237 237 236 235 235 235 237 239 239 240 240 240 240 240 242 243 243 244 244 244 243 243 245 246 248 249 252 256
203 206 208 209 210 212 212 211 212 212 212 213 212 212 213 213 214 214 216 217 219 221 222 223 225 226 227 227 227 227 228 230 232 234 236 237 237 236 235 235 236 237 239 240 241 241 241 242 243 244 246 248 250 249 246 243 242 243 245 247 248 250 254
202 204 207 210 212 213 212 211 212 212 213 214 214 214 214 214 214 214 216 218 219 220 221 223 225 226 227 228 227 228 228 229 232 234 235 236 237 237 236 236 236 237 237 238 239 240 241 243 243 245 246 248 250 250 247 243 241 242 244 246 248 250 252
201 203 205 208 211 212 211 211 213 213 214 215 214 215 214 214 213 214 215 218 220 222 224 225 225 226 227 228 228 228 229 230 231 233 235 236 237 237 237 237 237 237 237 237 238 239 240 241 241 243 245 245 246 246 245 242 241 241 242 244 248 250 252
201 201 202 206 210 211 211 212 214 214 214 215 214 214 213 212 212 214 215 216 219 221 223 224 225 226 226 227 228 229 229 230 231 233 234 235 236 237 237 238 238 238 238 238 238 239 239 240 240 241 242 242 242 242 242 241 241 241 241 242 246 249 252
201 201 203 206 208 210 212 214 215 215 215 214 213 212 211 211 212 214 214 215 217 219 221 223 224 225 226 227 227 229 230 230 231 232 234 235 236 237 238 239 240 240 241 241 241 240 240 240 240 240 241 241 240 240 240 241 242 243 243 243 245 248 251
204 203 205 207 209 210 212 214 214 214 212 210 210 210 211 212 212 212 214 215 216 218 220 222 224 225 226 227 228 229 230 231 232 232 234 235 236 237 238 240 241 242 243 244 242 242 241 241 241 241 241 241 240 239 240 241 243 244 244 244 245 247 250
209 207 209 211 210 210 211 213 213 211 208 207 209 211 211 211 211 212 213 214 215 216 219 222 223 225 226 227 229 230 231 231 232 233 234 235 237 238 239 240 241 243 243 243 243 243 242 241 241 241 241 241 240 240 240 241 243 244 245 245 246 247 250
212 210 213 213 212 211 212 212 210 206 205 206 207 210 210 210 211 211 212 214 215 217 219 221 223 224 226 227 229 230 230 231 232 233 234 235 237 238 239 240 242 243 243 243 243 242 241 241 242 241 241 240 240 239 240 240 242 244 245 247 249 250 252
216 215 215 214 212 211 210 208 206 205 204 204 206 208 209 209 210 210 211 213 215 217 219 220 221 223 225 227 228 229 229 230 231 232 233 234 236 237 239 240 242 243 243 243 243 241 241 241 242 243 242 240 239 239 239 239 241 243 245 247 250 252 254
219 218 216 215 212 209 207 205 205 205 204 204 205 207 208 208 208 210 211 213 216 217 218 219 220 222 224 226 227 228 229 230 231 232 233 234 235 237 238 240 241 242 243 243 243 243 242 242 243 244 243 240 239 239 240 240 242 243 245 247 249 252 254
220 219 218 217 212 206 204 203 204 205 204 204 205 206 208 208 208 209 210 212 215 216 217 218 218 220 222 225 227 228 230 230 231 232 233 233 235 236 238 239 241 242 243 244 245 244 244 244 244 245 244 242 241 240 240 242 243 245 246 247 249 251 253
224 220 217 215 210 204 202 202 204 204 203 203 204 205 207 207 208 209 210 212 213 214 216 217 218 219 222 224 226 228 230 231 232 233 233 234 234 235 236 237 239 241 243 245 245 245 244 245 245 246 246 246 244 243 244 245 246 246 247 248 249 251 254
225 218 213 210 206 203 202 202 202 203 202 201 202 203 204 205 206 207 209 210 212 213 215 216 218 219 221 223 225 228 230 231 232 233 233 234 234 234 234 235 237 239 242 244 245 244 244 245 246 247 247 247 247 247 247 248 248 247 248 249 250 252 254
223 214 208 205 203 202 203 203 203 202 200 199 200 202 203 203 205 206 208 209 211 213 215 216 218 220 221 223 226 229 230 230 231 232 233 233 234 234 233 234 236 238 240 243 244 244 244 244 245 245 246 247 247 248 249 249 248 248 249 250 251 253 256
214 206 203 202 202 202 204 203 201 199 198 197 200 202 203 204 205 206 207 208 210 213 215 216 218 220 222 225 227 229 229 230 231 232 232 233 234 234 234 234 235 237 240 243 244 244 245 245 244 244 245 246 247 248 249 249 248 248 250 252 253 255 258
203 198 199 201 200 201 202 200 198 198 198 198 200 202 203 203 203 204 206 208 210 213 213 215 218 220 223 226 227 228 229 229 230 231 232 233 234 235 236 236 236 238 239 242 243 244 245 245 244 244 244 246 247 247 248 248 248 249 250 252 254 256 258
201 197 198 200 199 200 200 199 199 200 200 199 201 204 205 204 204 207 208 209 209 210 212 214 217 220 222 225 226 228 229 230 231 232 233 234 235 236 237 237 238 238 239 241 243 244 245 245 244 244 245 246 247 247 248 248 248 249 250 252 253 255 258
207 202 200 200 199 199 199 199 200 201 201 201 203 205 205 204 206 207 206 205 207 209 212 213 216 218 222 225 227 228 230 231 232 234 235 235 236 237 238 238 239 239 239 241 242 243 245 245 244 244 245 246 248 249 250 250 249 250 251 252 253 255 258
210 205 202 200 199 198 198 199 199 199 200 201 202 202 202 202 204 204 203 205 207 210 212 214 216 220 223 226 228 229 231 232 233 235 236 236 237 238 239 239 240 240 241 242 243 244 244 245 246 246 246 247 248 250 251 251 250 251 252 253 254 257 259
205 207 207 204 201 199 199 199 200 199 198 199 200 201 201 202 203 204 204 206 209 211 213 215 218 222 225 227 228 229 231 232 233 235 236 237 238 239 239 240 241 242 243 243 245 246 246 247 247 247 247 248 249 251 251 251 251 253 253 254 256 259 260
177 194 204 206 203 202 200 199 199 198 197 198 200 201 202 202 204 204 204 206 208 211 213 216 220 224 226 228 229 230 232 233 234 235 236 237 238 239 240 241 242 243 243 244 245 245 246 247 247 247 247 248 249 250 250 250 251 252 254 255 257 259 261
115 163 183 195 198 199 199 198 198 198 197 199 200 201 203 203 204 205 204 205 208 210 213 217 221 225 227 229 231 232 232 233 233 234 235 236 237 238 239 241 241 242 243 244 245 246 246 247 248 248 249 249 249 250 251 251 251 252 254 255 257 259 261
81 124 154 171 184 191 194 196 197 197 198 200 200 201 203 204 205 206 206 207 209 210 213 218 222 226 228 230 232 233 233 234 233 234 235 235 237 238 239 239 240 241 243 244 245 246 247 249 250 250 250 251 252 253 255 256 255 253 254 255 257 259 262
68 94 126 146 163 175 182 188 191 192 196 200 200 201 202 204 206 208 209 209 210 212 215 220 223 226 228 231 233 234 235 235 235 236 237 237 239 240 240 241 242 242 244 245 246 247 249 249 251 252 253 254 256 256 258 260 258 256 256 256 257 259 262
68 85 105 125 144 158 167 175 182 187 191 195 197 197 199 201 204 207 209 210 211 215 219 223 225 227 230 232 235 236 237 238 239 240 241 242 244 245 244 245 245 245 245 246 247 248 249 250 252 254 255 256 258 259 260 261 260 259 258 259 259 260 263
71 82 95 111 128 142 153 161 169 176 181 186 189 192 193 195 197 201 204 206 210 215 218 221 224 227 230 232 235 238 239 241 242 244 245 247 247 247 248 249 249 249 249 249 249 250 251 252 254 255 257 258 259 260 261 262 263 262 261 261 262 262 264
65 75 87 100 112 125 138 146 152 159 166 173 180 183 187 189 190 192 195 198 204 209 212 216 220 224 227 231 234 237 240 242 244 245 246 248 247 248 249 250 250 250 250 250 250 251 252 253 254 255 257 259 260 261 262 264 265 264 263 263 264 264 265
61 68 78 87 98 112 125 133 137 140 145 153 162 171 179 184 184 185 187 191 195 201 206 211 217 222 227 231 234 237 239 241 244 245 246 247 247 248 248 249 249 250 251 251 251 252 253 254 255 256 257 259 261 262 264 265 266 267 266 266 266 266 266
60 66 74 79 87 100 113 123 128 131 134 138 146 156 168 177 179 177 177 180 183 189 195 201 207 213 219 224 228 231 233 235 237 240 242 244 245 246 246 247 248 249 249 250 251 251 253 255 256 257 258 260 262 263 265 266 267 268 268 268 268 268 267
60 67 73 76 80 89 102 114 122 125 127 131 138 146 155 164 169 168 168 171 175 181 188 192 196 200 204 210 214 217 221 224 226 230 234 238 242 244 245 245 246 247 248 249 250 251 253 255 256 257 258 259 262 264 266 267 268 268 269 269 269 267 264
56 65 72 74 78 87 96 104 110 114 116 119 126 136 145 154 161 163 165 170 177 184 190 194 197 201 205 210 214 215 217 218 219 221 225 230 235 239 241 242 244 244 245 246 248 250 252 253 256 257 259 260 263 265 266 266 266 266 266 265 263 259 255
48 61 71 75 77 83 90 96 100 103 106 107 110 116 124 131 140 148 157 167 177 185 191 196 201 203 206 212 216 217 217 217 217 217 219 223 228 232 234 236 239 241 242 244 246 249 251 253 255 258 260 263 266 267 268 268 268 267 265 260 252 248 246
40 53 65 75 76 77 82 88 93 97 98 98 100 103 104 105 107 112 123 139 156 172 185 194 201 205 206 207 209 212 215 216 216 216 218 222 225 226 227 228 231 235 238 241 244 247 250 253 255 258 262 264 264 264 264 265 265 261 255 248 242 240 240
29 43 56 68 74 76 78 79 81 87 92 93 95 97 97 97 97 97 99 104 114 133 159 178 190 200 204 202 198 200 205 209 211 214 217 221 223 223 224 224 227 230 233 236 239 242 245 248 249 248 249 251 250 250 250 249 246 241 239 238 236 233 233
16 30 43 53 64 72 74 72 71 75 80 84 88 91 91 92 92 91 91 92 94 102 123 148 168 181 188 188 186 188 193 200 205 209 213 216 216 216 218 222 225 226 228 230 232 234 237 238 235 228 226 230 234 234 234 237 240 239 236 235 235 234 233
4 19 33 44 58 66 66 65 62 61 65 71 76 79 80 81 82 80 79 79 78 83 98 116 139 159 167 167 168 171 175 183 191 197 202 203 201 200 205 214 220 222 222 221 222 223 224 223 220 217 218 222 228 234 238 244 248 244 237 235 239 238 233